sat.trackr.live / text

‹ back to catalog

STARLINK-5163

NORAD 54054 · 2022-136D

PAYLOAD ACTIVE UNKNOWN

§ Identity

Operator
Country
US
Launch date
2022-10-20
Launch site
AFETR
Launch vehicle
Mass (kg)
RCS (m²)

Purposes: comms

External: N2YO · Heavens-Above · Gunter

§ Orbital elements

Epoch: 2026-05-25T00:11:38.187168Z

Period
95.44 min
Inclination
53.2171°
Eccentricity
0.0001523
Mean motion
15.08841052 rev/d
Perigee alt
538.7 km
Apogee alt
540.8 km
Semi-major
6,917.9 km
B*
4.3275e-5
RAAN
1.6415°
Arg perigee
96.1437°
Mean anomaly
263.9729°
Rev number
19,836

§ Raw data

STARLINK-51631 54054U 22136D   26145.00808087  .00000401  00000+0  43275-4 0  99902 54054  53.2171   1.6415 0001523  96.1437 263.9729 15.08841052198366

JSON: /api/v1/satellites/54054 · /tle

For live sub-satellite position, see the globe view (requires WebGL).

§ Visibility from observer

Set your observer location to see the next 7 days of passes ≥ 10°. The values pass through the URL so the page stays shareable.

No JS? Fill the form by hand. The geolocation button needs JavaScript.